Home > Time Zones > World Clock > Weather > Peru > Ica > Past weeks

Flag for Peru Weather past 2 weeks in Ica, Ica, Peru

Now
68 °F

Passing clouds.


Feels Like: 68 °F
Forecast: 61 / 88 °F
Wind: 9 mph from Northwest

Location: Pisco Airport

Current Time: Jul 4, 2015 at 12:07:51 PM

Latest Report: Jul 4, 2015 at 11:00 AM


Visibility: 5 mi

Pressure: 29.86 "Hg

Humidity: 78%

Dew point: 61 °F

Location of IcaLocation

Historic Weather in Ica — Graph

°F

Ica temperature yesterday

Maximum temperature yesterday: 72 °F (at 1:00 PM)
Minimum temperature yesterday: 63 °F (at 11:00 PM)
Average temperature yesterday: 68 °F

Past Weeks' High & Low Weather Summary

 TemperatureHumidityPressure
High73 °F (Jun 26, 3:00 PM)94% (Jun 20, 7:00 AM)30.01 "Hg (Jun 20, 7:00 AM)
Low57 °F (Jun 28, 6:00 AM)61% (Jun 26, 3:00 PM)29.77 "Hg (Jun 19, 3:00 PM)
Average66 °F78%29.88 "Hg
* Reported Jun 19 11:00 AM — Jul 4 11:00 AM, Ica, Weather by CustomWeather, © 2015

Note: Actual official high and low records may vary slightly from our data, if they occured in-between our weather recording intervals... More about our weather records

Advertising

Ica weather history for previous 24 hours

 ConditionsComfort  
Time TempWeatherWind HumidityBarometerVisibility
11:00 AM
Sat, Jul 4
68 °FPassing clouds.9 mph78%29.86 "Hg5 mi
10:00 AM66 °FClear.7 mph78%29.86 "Hg5 mi
9:00 AM66 °FClear.3 mph73%29.83 "Hg4 mi
8:00 AM64 °FClear.7 mph78%29.80 "Hg4 mi
7:00 AM59 °FClear.5 mph82%29.80 "Hg4 mi
6:00 AM63 °FPassing clouds.6 mph83%29.77 "Hg5 mi
5:00 AM63 °FPassing clouds.18 mph83%29.77 "Hg5 mi
4:00 AM63 °FPassing clouds.12 mph83%29.77 "Hg5 mi
3:00 AM61 °FPassing clouds.7 mph83%29.80 "Hg5 mi
2:00 AM61 °FPassing clouds.2 mph83%29.80 "Hg5 mi
1:00 AM63 °FPassing clouds.7 mph83%29.80 "HgN/A
12:00 AM63 °FPassing clouds.3 mph88%29.83 "HgN/A
11:00 PM
Fri, Jul 3
63 °FPassing clouds.6 mph88%29.83 "HgN/A
10:00 PM66 °FPassing clouds.15 mph83%29.83 "HgN/A
9:00 PM66 °FPassing clouds.12 mph83%29.80 "HgN/A
8:00 PM66 °FPassing clouds.15 mph83%29.80 "HgN/A
7:00 PM66 °FPassing clouds.13 mph83%29.80 "HgN/A
6:00 PM66 °FPassing clouds.15 mph83%29.80 "HgN/A
5:00 PM68 °FScattered clouds.20 mph78%29.77 "HgN/A
4:00 PM72 °FPartly sunny.16 mph69%29.77 "HgN/A
3:00 PM72 °FScattered clouds.15 mph65%29.77 "HgN/A
2:00 PM72 °FPartly sunny.13 mphN/A29.77 "HgN/A
1:00 PM72 °FScattered clouds.9 mph69%29.80 "HgN/A
12:00 PM70 °FPartly sunny.8 mph69%29.83 "HgN/A
Weather by CustomWeather, © 2015

See weather overviewHow to use our weather pages